Location: *
(47.8307°S, 178.3954°E)
Time: 23:07:38
(UTC+00:00)

SeaSat 1 - Pass Details

Date: 12 August 2024
Orbit: 739 x 743 km, 108.0° (Epoch: 20 September)

Event Time Altitude Azimuth Distance (km) Brightness Sun altitude
Rises 16:07:19 0° 152° (SSE) 3,218 6.3 -31.5°
Reaches altitude 10° 16:09:36 10° 152° (SSE) 2,287 5.4 -31.1°
Enters shadow 16:12:50 42° 154° (SSE) 1,075 3.4 -30.6°
